Regional Weather Roundup
Issued by NWS

Home | Current Version | Previous Version | Text Only | Print | Product List | Glossary Off
Versions: 1 2 3 4 5 6 7 8 9 10 11 12 13 14 15 16 17 18 19 20 21 22 23 24 25 26 27 28 29 30 31 32 33 34 35 36 37 38 39 40 41 42 43 44 45 46 47 48 49 50

000
ASUS44 KMEG 021310
RWRTN
TENNESSEE HOURLY STATE WEATHER ROUNDUP
NATIONAL WEATHER SERVICE MEMPHIS TN
800 AM CDT TUE JUN 02 2015

TNZ002-004-019-021-049-052-054-088>092-021400-
WEST TENNESSEE

CITY           SKY/WX    TMP DP  RH WIND       PRES   REMARKS
MEMPHIS INTL   MOSUNNY   66  60  81 N9        30.10R
NWS MEMPHIS      N/A     64 N/A N/A MISG        N/A
JACKSON        CLOUDY    64  60  87 NE7       30.10R
DYERSBURG      CLOUDY    63  46  55 N7        30.12R
PARIS          CLOUDY    59  57  94 NE8       30.11R
LEXINGTON      PTSUNNY   63  57  82 NE9       30.08R
$$

TNZ008-025-027-028-033-062-065-066-021400-
NORTH MIDDLE TENNESSEE

CITY           SKY/WX    TMP DP  RH WIND       PRES   REMARKS
NASHVILLE      CLOUDY    61  59  94 N7        30.11R FOG
CLARKSVILLE    CLOUDY    60  57  89 N7        30.11R FOG
SMYRNA         CLOUDY    62  60  93 N6        30.11R
COOKEVILLE     CLOUDY    61  61 100 N5        30.08R
CROSSVILLE     CLOUDY    64  60  87 CALM      30.09R
$$

TNZ061-075-076-078-094-096-097-021400-
SOUTH MIDDLE TENNESSEE

CITY           SKY/WX    TMP DP  RH WIND       PRES   REMARKS
FAYETTEVILLE   CLOUDY   N/A N/A N/A MISG      30.08S
TULLAHOMA      CLOUDY    61  61 100 NW8       30.09S
WINCHESTER     CLOUDY    64  63  94 NW5       30.08S
MCMINNVILLE    CLOUDY    63  63 100 N6        30.09R
COLUMBIA       CLOUDY    63  61  94 NW5       30.08R
SHELBYVILLE    CLOUDY    64  63  94 N6        30.09S
$$

TNZ017-018-042-046-047-021400-
NORTHEAST TENNESSEE

CITY           SKY/WX    TMP DP  RH WIND       PRES   REMARKS
TRI CITIES     CLOUDY    65  63  93 CALM      30.08R FOG
ELIZABETHTON   CLOUDY    64  61  88 CALM      30.08R
$$

TNZ012-013-036-069-073-074-021400-
CENTRAL EAST TENNESSEE

CITY           SKY/WX    TMP DP  RH WIND       PRES   REMARKS
KNOXVILLE      CLOUDY    67  61  81 CALM      30.05S
OAK RIDGE      CLOUDY    67  62  84 CALM      30.08R
GATLINBURG     PTSUNNY   66  61  82 CALM      30.06S
MORRISTOWN     PTSUNNY   68  64  88 SE5       30.08R
$$

TNZ083-085-099-021400-
SOUTHEAST TENNESSEE

CITY           SKY/WX    TMP DP  RH WIND       PRES   REMARKS
CHATTANOOGA    PTSUNNY   68  63  84 CALM      30.06R
$$

SKY/WX REPORTED AS FAIR MEANS FEW OR NO CLOUDS BELOW
12 THOUSAND FEET.



USA.gov is the U.S. government's official web portal to all federal, state and local government web resources and services.